User: anonymous   Login
Location: West Cummington
(42.4920°N, 72.9680°W)
Time: 16:35:24
(UTC-04:00)
Language:

Cosmos 841 Rocket - Orbit

View from above orbital plane
View from above orbital plane
View from above satellite
View from above satellite

Ground track
Ground track

The orbit data is extracted from the following two-line orbital elements,

1 09023U 76069B   18144.53550697  .00000077  00000-0  33014-4 0  9999
2 09023  74.0421 186.7732 0018896 268.3756  91.5234 14.39579885193946
Epoch (UTC): 24 May 2018 12:51:07
Eccentricity: 0.0018896
inclination: 74.0421°
perigee height: 746 km
apogee height: 773 km
right ascension of ascending node: 186.7732°
argument of perigee: 268.3756°
revolutions per day: 14.39579885
mean anomaly at epoch: 91.5234°
orbit number at epoch: 19394

The dashed part of the orbit path shows where the satellite is in the earth's shadow,  

DLR